Garnett Industrial Airport (K68)
Garnett, KS
Field Elevation: 989
Lat: 38°16.64N  Long: 95°12.91W
CTAF/Unicom Freq: 122.8000
   
     For Weather-by-Phone, call 785-448-3254
Weather Advisories
10/23/2014 18:26 Z
Altimeter 30.12" Hg
Wind 200° @ 8 KT
Gusts --
Visibility 2 1/2 SM
Temperature 18° C (64° F)
Dewpoint 16° C (61° F)
Relative Humidity 88%
Density Altitude --
Condensation Altitude 2,100 feet
  Wind and Runways
Indicated Runway = 19
History
 
 
More Info
All DigiWx sites map
NOAA Forecast
 
Airport IQ 5010
(FLV) Sherman Airfield
(GRE) Greenville
 
about DigiWx
 
FAA Disclaimer: The data displayed is for advisory purposes only and is not to be used for flight planning or operations. For official data, please call 785-448-3254 to hear the current automated AWOS voice message.
  METAR K68 231826Z AUTO 20008KT 2 1/2SM 18/16 A3012